Time,TemperatureF,DewpointF,PressureIn,WindDirection,WindDirectionDegrees,WindSpeedMPH,WindSpeedGustMPH,Humidity,HourlyPrecipIn,Conditions,Clouds,dailyrainin,SolarRadiationWatts/m^2,SoftwareType,DateUTC
2013-02-21 00:00:00,23.5,12.0,30.27,NE,53,1.0,1.0,61,0.00,,,0.00,0,Wunderground v.1.15,2013-02-21 05:00:00,
2013-02-21 00:02:00,23.4,11.9,30.27,NE,54,1.0,1.0,61,0.00,,,0.00,0,Wunderground v.1.15,2013-02-21 05:02:00,
2013-02-21 00:07:00,23.2,12.1,30.27,NNE,20,0.0,2.0,62,0.00,,,0.00,0,Wunderground v.1.15,2013-02-21 05:07:00,
2013-02-21 00:12:00,23.2,11.7,30.27,North,358,2.0,2.0,61,0.00,,,0.00,0,Wunderground v.1.15,2013-02-21 05:12:00,
2013-02-21 00:18:00,23.1,12.0,30.27,North,3,1.0,3.0,62,0.00,,,0.00,0,Wunderground v.1.15,2013-02-21 05:18:00,
2013-02-21 00:22:00,23.0,11.9,30.27,North,3,0.0,0.0,62,0.00,,,0.00,0,Wunderground v.1.15,2013-02-21 05:22:00,
2013-02-21 00:27:00,22.9,12.2,30.27,North,4,0.0,1.0,63,0.00,,,0.00,0,Wunderground v.1.15,2013-02-21 05:27:00,
2013-02-21 00:33:00,22.8,12.1,30.27,NNE,33,2.0,2.0,63,0.00,,,0.00,0,Wunderground v.1.15,2013-02-21 05:33:00,
2013-02-21 00:38:00,22.7,12.0,30.27,NE,53,0.0,2.0,63,0.00,,,0.00,0,Wunderground v.1.15,2013-02-21 05:38:00,
2013-02-21 00:43:00,22.7,11.6,30.27,NE,39,1.0,1.0,62,0.00,,,0.00,0,Wunderground v.1.15,2013-02-21 05:43:00,
2013-02-21 00:49:00,22.6,11.9,30.27,NNE,28,2.0,2.0,63,0.00,,,0.00,0,Wunderground v.1.15,2013-02-21 05:49:00,
2013-02-21 00:54:00,22.5,11.8,30.27,NNE,30,1.0,1.0,63,0.00,,,0.00,0,Wunderground v.1.15,2013-02-21 05:54:00,
2013-02-21 00:59:00,22.5,11.8,30.27,NNE,31,1.0,1.0,63,0.00,,,0.00,0,Wunderground v.1.15,2013-02-21 05:59:00,
2013-02-21 01:05:00,22.4,11.7,30.28,ENE,68,0.0,1.0,63,0.00,,,0.00,0,Wunderground v.1.15,2013-02-21 06:05:00,
2013-02-21 01:11:00,22.4,11.3,30.27,ENE,68,0.0,1.0,62,0.00,,,0.00,0,Wunderground v.1.15,2013-02-21 06:11:00,
2013-02-21 01:18:00,22.3,11.6,30.27,ENE,68,1.0,1.0,63,0.00,,,0.00,0,Wunderground v.1.15,2013-02-21 06:18:00,
2013-02-21 01:23:00,22.2,11.5,30.27,ENE,68,1.0,1.0,63,0.00,,,0.00,0,Wunderground v.1.15,2013-02-21 06:23:00,
2013-02-21 01:28:00,22.1,11.4,30.27,ENE,75,3.0,3.0,63,0.00,,,0.00,0,Wunderground v.1.15,2013-02-21 06:28:00,
2013-02-21 01:33:00,22.1,11.4,30.28,ENE,75,0.0,0.0,63,0.00,,,0.00,0,Wunderground v.1.15,2013-02-21 06:33:00,
2013-02-21 01:38:00,22.0,11.7,30.28,ENE,75,0.0,1.0,64,0.00,,,0.00,0,Wunderground v.1.15,2013-02-21 06:38:00,
2013-02-21 01:43:00,21.9,11.6,30.28,ENE,75,0.0,0.0,64,0.00,,,0.00,0,Wunderground v.1.15,2013-02-21 06:43:00,
2013-02-21 01:50:00,21.7,11.7,30.28,ENE,75,0.0,0.0,65,0.00,,,0.00,0,Wunderground v.1.15,2013-02-21 06:50:00,
2013-02-21 01:55:00,21.7,11.7,30.28,ENE,75,0.0,0.0,65,0.00,,,0.00,0,Wunderground v.1.15,2013-02-21 06:55:00,
2013-02-21 02:01:00,21.7,12.1,30.28,ENE,75,0.0,0.0,66,0.00,,,0.00,0,Wunderground v.1.15,2013-02-21 07:01:00,
2013-02-21 02:06:00,21.5,11.9,30.28,ENE,75,0.0,1.0,66,0.00,,,0.00,0,Wunderground v.1.15,2013-02-21 07:06:00,
2013-02-21 02:11:00,21.4,12.1,30.28,ENE,75,0.0,0.0,67,0.00,,,0.00,0,Wunderground v.1.15,2013-02-21 07:11:00,
2013-02-21 02:16:00,21.2,12.6,30.28,ENE,75,0.0,0.0,69,0.00,,,0.00,0,Wunderground v.1.15,2013-02-21 07:16:00,
2013-02-21 02:21:00,21.0,12.4,30.28,ENE,75,0.0,1.0,69,0.00,,,0.00,0,Wunderground v.1.15,2013-02-21 07:21:00,
2013-02-21 02:26:00,20.8,12.9,30.28,ENE,75,0.0,1.0,71,0.00,,,0.00,0,Wunderground v.1.15,2013-02-21 07:26:00,
2013-02-21 02:31:00,20.6,12.4,30.28,ENE,75,0.0,0.0,70,0.00,,,0.00,0,Wunderground v.1.15,2013-02-21 07:31:00,
2013-02-21 02:36:00,20.4,12.5,30.28,ENE,75,0.0,1.0,71,0.00,,,0.00,0,Wunderground v.1.15,2013-02-21 07:36:00,
2013-02-21 02:42:00,20.1,12.2,30.29,ENE,75,0.0,0.0,71,0.00,,,0.00,0,Wunderground v.1.15,2013-02-21 07:42:00,
2013-02-21 02:47:00,20.0,12.4,30.29,ENE,75,0.0,0.0,72,0.00,,,0.00,0,Wunderground v.1.15,2013-02-21 07:47:00,
2013-02-21 02:52:00,19.8,12.2,30.28,ENE,75,0.0,0.0,72,0.00,,,0.00,0,Wunderground v.1.15,2013-02-21 07:52:00,
2013-02-21 02:57:00,19.7,12.1,30.28,ENE,75,0.0,2.0,72,0.00,,,0.00,0,Wunderground v.1.15,2013-02-21 07:57:00,
2013-02-21 03:02:00,19.6,12.3,30.28,ENE,75,0.0,0.0,73,0.00,,,0.00,0,Wunderground v.1.15,2013-02-21 08:02:00,
2013-02-21 03:07:00,19.5,12.3,30.28,ENE,75,0.0,1.0,73,0.00,,,0.00,0,Wunderground v.1.15,2013-02-21 08:07:00,
2013-02-21 03:12:00,19.4,12.2,30.29,ENE,75,0.0,1.0,73,0.00,,,0.00,0,Wunderground v.1.15,2013-02-21 08:12:00,
2013-02-21 03:17:00,19.2,12.0,30.28,ENE,75,0.0,1.0,73,0.00,,,0.00,0,Wunderground v.1.15,2013-02-21 08:17:00,
2013-02-21 03:22:00,19.1,12.2,30.28,ENE,75,0.0,0.0,74,0.00,,,0.00,0,Wunderground v.1.15,2013-02-21 08:22:00,
2013-02-21 03:27:00,19.1,11.9,30.29,ENE,75,0.0,1.0,73,0.00,,,0.00,0,Wunderground v.1.15,2013-02-21 08:27:00,
2013-02-21 03:32:00,19.0,12.1,30.28,ENE,75,0.0,0.0,74,0.00,,,0.00,0,Wunderground v.1.15,2013-02-21 08:32:00,
2013-02-21 03:37:00,18.9,11.7,30.28,ENE,75,0.0,0.0,73,0.00,,,0.00,0,Wunderground v.1.15,2013-02-21 08:37:00,
2013-02-21 03:42:00,18.9,12.0,30.28,ENE,75,0.0,0.0,74,0.00,,,0.00,0,Wunderground v.1.15,2013-02-21 08:42:00,
2013-02-21 03:48:00,18.8,11.9,30.28,ENE,75,0.0,0.0,74,0.00,,,0.00,0,Wunderground v.1.15,2013-02-21 08:48:00,
2013-02-21 03:53:00,18.7,12.1,30.28,ENE,75,0.0,0.0,75,0.00,,,0.00,0,Wunderground v.1.15,2013-02-21 08:53:00,
2013-02-21 03:58:00,18.6,11.7,30.27,ENE,75,1.0,1.0,74,0.00,,,0.00,0,Wunderground v.1.15,2013-02-21 08:58:00,
2013-02-21 04:03:00,18.4,12.1,30.27,ENE,75,0.0,0.0,76,0.00,,,0.00,0,Wunderground v.1.15,2013-02-21 09:03:00,
2013-02-21 04:08:00,18.4,12.1,30.27,ENE,75,0.0,0.0,76,0.00,,,0.00,0,Wunderground v.1.15,2013-02-21 09:08:00,
2013-02-21 04:13:00,18.4,12.1,30.27,ENE,75,1.0,1.0,76,0.00,,,0.00,0,Wunderground v.1.15,2013-02-21 09:13:00,
2013-02-21 04:18:00,18.3,12.0,30.27,ENE,75,0.0,1.0,76,0.00,,,0.00,0,Wunderground v.1.15,2013-02-21 09:18:00,
2013-02-21 04:23:00,18.1,11.8,30.27,ENE,75,0.0,1.0,76,0.00,,,0.00,0,Wunderground v.1.15,2013-02-21 09:23:00,
2013-02-21 04:28:00,18.1,11.8,30.28,ENE,75,1.0,1.0,76,0.00,,,0.00,0,Wunderground v.1.15,2013-02-21 09:28:00,
2013-02-21 04:33:00,18.0,11.7,30.28,ENE,75,0.0,1.0,76,0.00,,,0.00,0,Wunderground v.1.15,2013-02-21 09:33:00,
2013-02-21 04:38:00,18.0,11.7,30.29,ENE,75,0.0,1.0,76,0.00,,,0.00,0,Wunderground v.1.15,2013-02-21 09:38:00,
2013-02-21 04:43:00,18.0,11.7,30.28,ENE,75,1.0,1.0,76,0.00,,,0.00,0,Wunderground v.1.15,2013-02-21 09:43:00,
2013-02-21 04:48:00,17.9,11.3,30.28,ENE,75,0.0,1.0,75,0.00,,,0.00,0,Wunderground v.1.15,2013-02-21 09:48:00,
2013-02-21 04:53:00,17.8,11.2,30.29,ENE,75,0.0,1.0,75,0.00,,,0.00,0,Wunderground v.1.15,2013-02-21 09:53:00,
2013-02-21 04:58:00,17.9,11.3,30.29,ENE,75,0.0,1.0,75,0.00,,,0.00,0,Wunderground v.1.15,2013-02-21 09:58:00,
2013-02-21 05:03:00,17.8,11.2,30.29,ENE,75,0.0,1.0,75,0.00,,,0.00,0,Wunderground v.1.15,2013-02-21 10:03:00,
2013-02-21 05:08:00,17.8,11.2,30.29,ENE,75,0.0,1.0,75,0.00,,,0.00,0,Wunderground v.1.15,2013-02-21 10:08:00,
2013-02-21 05:14:00,17.7,11.7,30.30,ENE,75,1.0,1.0,77,0.00,,,0.00,0,Wunderground v.1.15,2013-02-21 10:14:00,
2013-02-21 05:19:00,17.7,11.4,30.29,ENE,75,0.0,1.0,76,0.00,,,0.00,0,Wunderground v.1.15,2013-02-21 10:19:00,
2013-02-21 05:24:00,17.6,11.6,30.29,ENE,75,0.0,0.0,77,0.00,,,0.00,0,Wunderground v.1.15,2013-02-21 10:24:00,
2013-02-21 05:29:00,17.6,11.9,30.28,ENE,75,0.0,1.0,78,0.00,,,0.00,0,Wunderground v.1.15,2013-02-21 10:29:00,
2013-02-21 05:34:00,17.5,11.5,30.29,ENE,75,0.0,0.0,77,0.00,,,0.00,0,Wunderground v.1.15,2013-02-21 10:34:00,
2013-02-21 05:38:00,17.4,11.7,30.29,ENE,75,0.0,1.0,78,0.00,,,0.00,0,Wunderground v.1.15,2013-02-21 10:38:00,
2013-02-21 05:43:00,17.3,11.6,30.29,ENE,75,0.0,1.0,78,0.00,,,0.00,0,Wunderground v.1.15,2013-02-21 10:43:00,
2013-02-21 05:48:00,17.4,11.7,30.29,ENE,75,0.0,1.0,78,0.00,,,0.00,0,Wunderground v.1.15,2013-02-21 10:48:00,
2013-02-21 05:53:00,17.3,11.6,30.29,ENE,75,0.0,0.0,78,0.00,,,0.00,0,Wunderground v.1.15,2013-02-21 10:53:00,
2013-02-21 05:58:00,17.3,11.6,30.29,ENE,75,0.0,0.0,78,0.00,,,0.00,0,Wunderground v.1.15,2013-02-21 10:58:00,
2013-02-21 06:04:00,17.2,11.5,30.30,ENE,75,0.0,0.0,78,0.00,,,0.00,0,Wunderground v.1.15,2013-02-21 11:04:00,
2013-02-21 06:08:00,17.1,11.4,30.30,ENE,75,0.0,1.0,78,0.00,,,0.00,0,Wunderground v.1.15,2013-02-21 11:08:00,
2013-02-21 06:14:00,17.1,11.7,30.30,ENE,75,1.0,1.0,79,0.00,,,0.00,0,Wunderground v.1.15,2013-02-21 11:14:00,
2013-02-21 06:19:00,17.2,11.5,30.31,ENE,75,0.0,0.0,78,0.00,,,0.00,0,Wunderground v.1.15,2013-02-21 11:19:00,
2013-02-21 06:24:00,17.1,11.7,30.30,ENE,75,0.0,1.0,79,0.00,,,0.00,0,Wunderground v.1.15,2013-02-21 11:24:00,
2013-02-21 06:29:00,17.1,11.7,30.31,ENE,75,0.0,0.0,79,0.00,,,0.00,0,Wunderground v.1.15,2013-02-21 11:29:00,
2013-02-21 06:34:00,17.0,11.6,30.31,ENE,75,0.0,1.0,79,0.00,,,0.00,0,Wunderground v.1.15,2013-02-21 11:34:00,
2013-02-21 06:39:00,16.9,11.5,30.31,ENE,75,0.0,0.0,79,0.00,,,0.00,0,Wunderground v.1.15,2013-02-21 11:39:00,
2013-02-21 06:44:00,16.9,11.5,30.32,ENE,75,1.0,1.0,79,0.00,,,0.00,0,Wunderground v.1.15,2013-02-21 11:44:00,
2013-02-21 06:49:00,16.9,11.8,30.31,ENE,75,1.0,1.0,80,0.00,,,0.00,0,Wunderground v.1.15,2013-02-21 11:49:00,
2013-02-21 06:54:00,16.9,11.5,30.32,ENE,75,0.0,1.0,79,0.00,,,0.00,0,Wunderground v.1.15,2013-02-21 11:54:00,
2013-02-21 06:59:00,16.9,11.8,30.32,ENE,75,0.0,0.0,80,0.00,,,0.00,0,Wunderground v.1.15,2013-02-21 11:59:00,
2013-02-21 07:04:00,16.9,11.8,30.32,ENE,75,0.0,1.0,80,0.00,,,0.00,0,Wunderground v.1.15,2013-02-21 12:04:00,
2013-02-21 07:09:00,16.9,11.8,30.32,ENE,75,0.0,1.0,80,0.00,,,0.00,0,Wunderground v.1.15,2013-02-21 12:09:00,
2013-02-21 07:14:00,16.9,11.8,30.32,ENE,75,0.0,1.0,80,0.00,,,0.00,0,Wunderground v.1.15,2013-02-21 12:14:00,
2013-02-21 07:19:00,16.9,12.1,30.32,ENE,75,0.0,1.0,81,0.00,,,0.00,0,Wunderground v.1.15,2013-02-21 12:19:00,
2013-02-21 07:24:00,16.9,11.8,30.33,ENE,75,0.0,1.0,80,0.00,,,0.00,0,Wunderground v.1.15,2013-02-21 12:24:00,
2013-02-21 07:29:00,17.0,12.2,30.33,ENE,75,0.0,0.0,81,0.00,,,0.00,0,Wunderground v.1.15,2013-02-21 12:29:00,
2013-02-21 07:35:00,17.0,11.9,30.33,ENE,75,1.0,1.0,80,0.00,,,0.00,0,Wunderground v.1.15,2013-02-21 12:35:00,
2013-02-21 07:39:00,17.3,12.5,30.33,ENE,75,0.0,1.0,81,0.00,,,0.00,0,Wunderground v.1.15,2013-02-21 12:39:00,
2013-02-21 07:45:00,17.5,12.4,30.33,ENE,75,1.0,1.0,80,0.00,,,0.00,0,Wunderground v.1.15,2013-02-21 12:45:00,
2013-02-21 07:50:00,17.7,12.6,30.33,ENE,75,0.0,1.0,80,0.00,,,0.00,0,Wunderground v.1.15,2013-02-21 12:50:00,
2013-02-21 07:55:00,17.9,12.8,30.33,ENE,75,1.0,2.0,80,0.00,,,0.00,0,Wunderground v.1.15,2013-02-21 12:55:00,
2013-02-21 08:01:00,18.3,13.2,30.33,ENE,75,0.0,1.0,80,0.00,,,0.00,0,Wunderground v.1.15,2013-02-21 13:01:00,
2013-02-21 08:06:00,18.6,13.5,30.34,ENE,75,0.0,1.0,80,0.00,,,0.00,0,Wunderground v.1.15,2013-02-21 13:06:00,
2013-02-21 08:11:00,18.9,13.5,30.34,ENE,75,1.0,2.0,79,0.00,,,0.00,0,Wunderground v.1.15,2013-02-21 13:11:00,
2013-02-21 08:16:00,19.3,13.9,30.34,ENE,75,1.0,2.0,79,0.00,,,0.00,0,Wunderground v.1.15,2013-02-21 13:16:00,
2013-02-21 08:21:00,19.6,14.1,30.34,ENE,75,0.0,2.0,79,0.00,,,0.00,0,Wunderground v.1.15,2013-02-21 13:21:00,
2013-02-21 08:26:00,19.9,14.1,30.34,ENE,75,1.0,2.0,78,0.00,,,0.00,0,Wunderground v.1.15,2013-02-21 13:26:00,
2013-02-21 08:31:00,20.4,14.6,30.34,ENE,75,0.0,1.0,78,0.00,,,0.00,0,Wunderground v.1.15,2013-02-21 13:31:00,
2013-02-21 08:36:00,20.8,14.7,30.34,ENE,75,0.0,1.0,77,0.00,,,0.00,0,Wunderground v.1.15,2013-02-21 13:36:00,
2013-02-21 08:41:00,21.4,15.0,30.34,ENE,75,1.0,2.0,76,0.00,,,0.00,0,Wunderground v.1.15,2013-02-21 13:41:00,
2013-02-21 08:46:00,21.8,15.4,30.35,ENE,75,1.0,2.0,76,0.00,,,0.00,0,Wunderground v.1.15,2013-02-21 13:46:00,
2013-02-21 08:51:00,22.3,15.3,30.35,ENE,75,0.0,2.0,74,0.00,,,0.00,0,Wunderground v.1.15,2013-02-21 13:51:00,
2013-02-21 08:56:00,22.6,15.2,30.35,ENE,75,0.0,2.0,73,0.00,,,0.00,0,Wunderground v.1.15,2013-02-21 13:56:00,
2013-02-21 09:01:00,23.1,15.7,30.35,ENE,75,1.0,1.0,73,0.00,,,0.00,0,Wunderground v.1.15,2013-02-21 14:01:00,
2013-02-21 09:06:00,23.5,15.5,30.34,ENE,75,0.0,3.0,71,0.00,,,0.00,0,Wunderground v.1.15,2013-02-21 14:06:00,
2013-02-21 09:11:00,24.0,16.0,30.34,ENE,75,2.0,2.0,71,0.00,,,0.00,0,Wunderground v.1.15,2013-02-21 14:11:00,
2013-02-21 09:16:00,24.5,15.1,30.33,North,2,1.0,3.0,67,0.00,,,0.00,0,Wunderground v.1.15,2013-02-21 14:16:00,
2013-02-21 09:21:00,24.9,15.1,30.34,SSE,165,2.0,4.0,66,0.00,,,0.00,0,Wunderground v.1.15,2013-02-21 14:21:00,
2013-02-21 09:26:00,25.4,14.5,30.33,NNE,33,1.0,4.0,63,0.00,,,0.00,0,Wunderground v.1.15,2013-02-21 14:26:00,
2013-02-21 09:31:00,25.7,14.8,30.34,NE,45,1.0,2.0,63,0.00,,,0.00,0,Wunderground v.1.15,2013-02-21 14:31:00,
2013-02-21 09:37:00,26.1,14.1,30.34,ENE,78,2.0,5.0,60,0.00,,,0.00,0,Wunderground v.1.15,2013-02-21 14:37:00,
2013-02-21 09:42:00,26.5,14.1,30.34,NNE,12,3.0,4.0,59,0.00,,,0.00,0,Wunderground v.1.15,2013-02-21 14:42:00,
2013-02-21 09:48:00,27.0,14.9,30.34,East,83,1.0,5.0,60,0.00,,,0.00,0,Wunderground v.1.15,2013-02-21 14:48:00,
2013-02-21 09:53:00,28.2,15.3,30.35,South,178,0.0,4.0,58,0.00,,,0.00,0,Wunderground v.1.15,2013-02-21 14:53:00,
2013-02-21 09:58:00,29.2,15.0,30.34,SE,140,3.0,6.0,55,0.00,,,0.00,0,Wunderground v.1.15,2013-02-21 14:58:00,
2013-02-21 10:03:00,29.2,15.0,30.34,SE,141,2.0,6.0,55,0.00,,,0.00,0,Wunderground v.1.15,2013-02-21 15:03:00,
2013-02-21 10:08:00,30.0,15.3,30.34,ESE,114,1.0,6.0,54,0.00,,,0.00,0,Wunderground v.1.15,2013-02-21 15:08:00,
2013-02-21 10:13:00,30.0,14.9,30.34,East,82,4.0,6.0,53,0.00,,,0.00,0,Wunderground v.1.15,2013-02-21 15:13:00,
2013-02-21 10:19:00,29.4,14.4,30.33,ENE,68,0.0,0.0,53,0.00,,,0.00,0,Wunderground v.1.15,2013-02-21 15:19:00,
2013-02-21 10:24:00,29.9,15.3,30.34,SE,124,3.0,3.0,54,0.00,,,0.00,0,Wunderground v.1.15,2013-02-21 15:24:00,
2013-02-21 10:29:00,30.2,14.7,30.33,ENE,74,1.0,1.0,52,0.00,,,0.00,0,Wunderground v.1.15,2013-02-21 15:29:00,
2013-02-21 10:35:00,30.4,15.3,30.33,SSE,158,6.0,6.0,53,0.00,,,0.00,0,Wunderground v.1.15,2013-02-21 15:35:00,
2013-02-21 10:40:00,31.0,15.8,30.33,South,170,1.0,4.0,53,0.00,,,0.00,0,Wunderground v.1.15,2013-02-21 15:40:00,
2013-02-21 10:45:00,31.9,16.2,30.32,SE,140,2.0,5.0,52,0.00,,,0.00,0,Wunderground v.1.15,2013-02-21 15:45:00,
2013-02-21 10:50:00,31.4,14.9,30.32,North,353,2.0,4.0,50,0.00,,,0.00,0,Wunderground v.1.15,2013-02-21 15:50:00,
2013-02-21 10:55:00,30.7,14.7,30.32,NNE,18,1.0,4.0,51,0.00,,,0.00,0,Wunderground v.1.15,2013-02-21 15:55:00,
2013-02-21 11:00:00,31.3,15.7,30.32,East,92,1.0,4.0,52,0.00,,,0.00,0,Wunderground v.1.15,2013-02-21 16:00:00,
2013-02-21 11:05:00,31.4,15.3,30.32,NE,37,2.0,4.0,51,0.00,,,0.00,0,Wunderground v.1.15,2013-02-21 16:05:00,
2013-02-21 11:11:00,31.6,15.5,30.32,NNE,19,3.0,4.0,51,0.00,,,0.00,0,Wunderground v.1.15,2013-02-21 16:11:00,
2013-02-21 11:16:00,31.2,14.7,30.32,East,83,1.0,4.0,50,0.00,,,0.00,0,Wunderground v.1.15,2013-02-21 16:16:00,
2013-02-21 11:21:00,32.3,16.6,30.32,SSE,166,1.0,3.0,52,0.00,,,0.00,0,Wunderground v.1.15,2013-02-21 16:21:00,
2013-02-21 11:26:00,32.6,16.0,30.32,NE,49,4.0,5.0,50,0.00,,,0.00,0,Wunderground v.1.15,2013-02-21 16:26:00,
2013-02-21 11:31:00,32.1,16.0,30.32,NNW,333,1.0,4.0,51,0.00,,,0.00,0,Wunderground v.1.15,2013-02-21 16:31:00,
2013-02-21 11:36:00,33.1,16.9,30.32,ESE,104,0.0,4.0,51,0.00,,,0.00,0,Wunderground v.1.15,2013-02-21 16:36:00,
2013-02-21 11:41:00,33.4,16.7,30.32,SSE,162,7.0,7.0,50,0.00,,,0.00,0,Wunderground v.1.15,2013-02-21 16:41:00,
2013-02-21 11:46:00,33.8,17.6,30.31,SSE,166,5.0,7.0,51,0.00,,,0.00,0,Wunderground v.1.15,2013-02-21 16:46:00,
2013-02-21 11:51:00,33.9,17.2,30.31,NE,34,0.0,2.0,50,0.00,,,0.00,0,Wunderground v.1.15,2013-02-21 16:51:00,
2013-02-21 11:56:00,33.4,16.3,30.30,ENE,78,2.0,6.0,49,0.00,,,0.00,0,Wunderground v.1.15,2013-02-21 16:56:00,
2013-02-21 12:01:00,33.7,17.0,30.30,SSE,162,3.0,5.0,50,0.00,,,0.00,0,Wunderground v.1.15,2013-02-21 17:01:00,
2013-02-21 12:06:00,34.2,17.5,30.29,SSE,165,0.0,5.0,50,0.00,,,0.00,0,Wunderground v.1.15,2013-02-21 17:06:00,
2013-02-21 12:11:00,34.2,17.5,30.28,ENE,64,3.0,6.0,50,0.00,,,0.00,0,Wunderground v.1.15,2013-02-21 17:11:00,
2013-02-21 12:16:00,33.8,17.1,30.29,SE,140,4.0,6.0,50,0.00,,,0.00,0,Wunderground v.1.15,2013-02-21 17:16:00,
2013-02-21 12:21:00,34.2,17.5,30.28,WSW,246,1.0,3.0,50,0.00,,,0.00,0,Wunderground v.1.15,2013-02-21 17:21:00,
2013-02-21 12:26:00,34.0,17.3,30.28,NNE,21,4.0,5.0,50,0.00,,,0.00,0,Wunderground v.1.15,2013-02-21 17:26:00,
2013-02-21 12:32:00,33.3,16.6,30.28,NE,38,2.0,3.0,50,0.00,,,0.00,0,Wunderground v.1.15,2013-02-21 17:32:00,
2013-02-21 12:37:00,33.5,16.8,30.28,SSE,153,2.0,6.0,50,0.00,,,0.00,0,Wunderground v.1.15,2013-02-21 17:37:00,
2013-02-21 12:42:00,33.9,17.2,30.27,East,83,3.0,4.0,50,0.00,,,0.00,0,Wunderground v.1.15,2013-02-21 17:42:00,
2013-02-21 12:47:00,33.9,17.2,30.27,East,80,2.0,7.0,50,0.00,,,0.00,0,Wunderground v.1.15,2013-02-21 17:47:00,
2013-02-21 12:52:00,34.2,17.5,30.27,ENE,77,4.0,6.0,50,0.00,,,0.00,0,Wunderground v.1.15,2013-02-21 17:52:00,
2013-02-21 12:57:00,34.0,17.3,30.27,SE,130,1.0,6.0,50,0.00,,,0.00,0,Wunderground v.1.15,2013-02-21 17:57:00,
2013-02-21 13:03:00,34.1,17.4,30.27,SE,144,2.0,5.0,50,0.00,,,0.00,0,Wunderground v.1.15,2013-02-21 18:03:00,
2013-02-21 13:08:00,34.3,17.1,30.26,ENE,60,3.0,6.0,49,0.00,,,0.00,0,Wunderground v.1.15,2013-02-21 18:08:00,
2013-02-21 13:13:00,34.3,17.6,30.26,North,3,1.0,6.0,50,0.00,,,0.00,0,Wunderground v.1.15,2013-02-21 18:13:00,
2013-02-21 13:18:00,34.2,17.5,30.26,SSE,154,4.0,7.0,50,0.00,,,0.00,0,Wunderground v.1.15,2013-02-21 18:18:00,
2013-02-21 13:23:00,34.5,17.8,30.25,NE,51,3.0,6.0,50,0.00,,,0.00,0,Wunderground v.1.15,2013-02-21 18:23:00,
2013-02-21 13:28:00,34.7,17.9,30.25,ESE,108,3.0,6.0,50,0.00,,,0.00,0,Wunderground v.1.15,2013-02-21 18:28:00,
2013-02-21 13:33:00,34.5,17.8,30.25,North,354,3.0,5.0,50,0.00,,,0.00,0,Wunderground v.1.15,2013-02-21 18:33:00,
2013-02-21 13:38:00,34.3,17.6,30.24,East,79,4.0,7.0,50,0.00,,,0.00,0,Wunderground v.1.15,2013-02-21 18:38:00,
2013-02-21 13:43:00,34.7,17.9,30.23,SE,135,2.0,6.0,50,0.00,,,0.00,0,Wunderground v.1.15,2013-02-21 18:43:00,
2013-02-21 13:48:00,35.1,18.3,30.23,ENE,75,2.0,6.0,50,0.00,,,0.00,0,Wunderground v.1.15,2013-02-21 18:48:00,
2013-02-21 13:53:00,35.1,17.8,30.22,NNE,24,4.0,5.0,49,0.00,,,0.00,0,Wunderground v.1.15,2013-02-21 18:53:00,
2013-02-21 13:58:00,35.0,18.2,30.23,ENE,60,0.0,6.0,50,0.00,,,0.00,0,Wunderground v.1.15,2013-02-21 18:58:00,
2013-02-21 14:03:00,35.6,18.8,30.23,NE,38,3.0,7.0,50,0.00,,,0.00,0,Wunderground v.1.15,2013-02-21 19:03:00,
2013-02-21 14:08:00,35.8,18.5,30.23,SSE,151,1.0,7.0,49,0.00,,,0.00,0,Wunderground v.1.15,2013-02-21 19:08:00,
2013-02-21 14:13:00,36.2,19.3,30.22,NE,48,3.0,4.0,50,0.00,,,0.00,0,Wunderground v.1.15,2013-02-21 19:13:00,
2013-02-21 14:18:00,36.1,17.8,30.22,North,7,5.0,6.0,47,0.00,,,0.00,0,Wunderground v.1.15,2013-02-21 19:18:00,
2013-02-21 14:23:00,35.8,18.5,30.22,ENE,69,1.0,6.0,49,0.00,,,0.00,0,Wunderground v.1.15,2013-02-21 19:23:00,
2013-02-21 14:28:00,35.8,18.0,30.22,NNE,22,2.0,6.0,48,0.00,,,0.00,0,Wunderground v.1.15,2013-02-21 19:28:00,
2013-02-21 14:33:00,35.9,18.6,30.21,ENE,61,4.0,4.0,49,0.00,,,0.00,0,Wunderground v.1.15,2013-02-21 19:33:00,
2013-02-21 14:39:00,35.9,18.1,30.22,ENE,78,4.0,4.0,48,0.00,,,0.00,0,Wunderground v.1.15,2013-02-21 19:39:00,
2013-02-21 14:44:00,36.0,17.7,30.22,NNW,348,4.0,5.0,47,0.00,,,0.00,0,Wunderground v.1.15,2013-02-21 19:44:00,
2013-02-21 14:50:00,36.3,19.4,30.23,ESE,104,2.0,3.0,50,0.00,,,0.00,0,Wunderground v.1.15,2013-02-21 19:50:00,
2013-02-21 14:55:00,36.4,18.6,30.23,NE,42,2.0,7.0,48,0.00,,,0.00,0,Wunderground v.1.15,2013-02-21 19:55:00,
2013-02-21 15:00:00,36.4,18.1,30.23,North,6,3.0,5.0,47,0.00,,,0.00,0,Wunderground v.1.15,2013-02-21 20:00:00,
2013-02-21 15:05:00,36.3,18.5,30.22,NNE,17,2.0,5.0,48,0.00,,,0.00,0,Wunderground v.1.15,2013-02-21 20:05:00,
2013-02-21 15:10:00,36.1,18.3,30.22,NE,34,1.0,4.0,48,0.00,,,0.00,0,Wunderground v.1.15,2013-02-21 20:10:00,
2013-02-21 15:15:00,36.2,18.9,30.22,NNE,27,1.0,4.0,49,0.00,,,0.00,0,Wunderground v.1.15,2013-02-21 20:15:00,
2013-02-21 15:20:00,36.5,18.2,30.23,NNE,26,2.0,3.0,47,0.00,,,0.00,0,Wunderground v.1.15,2013-02-21 20:20:00,
2013-02-21 15:25:00,36.3,18.5,30.23,NNE,25,3.0,5.0,48,0.00,,,0.00,0,Wunderground v.1.15,2013-02-21 20:25:00,
2013-02-21 15:31:00,36.3,18.5,30.22,North,6,2.0,5.0,48,0.00,,,0.00,0,Wunderground v.1.15,2013-02-21 20:31:00,
2013-02-21 15:36:00,36.4,19.5,30.21,NE,42,4.0,6.0,50,0.00,,,0.00,0,Wunderground v.1.15,2013-02-21 20:36:00,
2013-02-21 15:41:00,36.4,19.5,30.21,North,5,2.0,6.0,50,0.00,,,0.00,0,Wunderground v.1.15,2013-02-21 20:41:00,
2013-02-21 15:46:00,36.5,19.1,30.21,North,0,2.0,6.0,49,0.00,,,0.00,0,Wunderground v.1.15,2013-02-21 20:46:00,
2013-02-21 15:51:00,36.5,19.6,30.21,NNE,28,5.0,5.0,50,0.00,,,0.00,0,Wunderground v.1.15,2013-02-21 20:51:00,
2013-02-21 15:56:00,36.4,19.5,30.21,NNE,19,2.0,6.0,50,0.00,,,0.00,0,Wunderground v.1.15,2013-02-21 20:56:00,
2013-02-21 16:01:00,36.5,18.6,30.20,ENE,75,6.0,8.0,48,0.00,,,0.00,0,Wunderground v.1.15,2013-02-21 21:01:00,
2013-02-21 16:06:00,36.6,18.7,30.20,ENE,72,3.0,8.0,48,0.00,,,0.00,0,Wunderground v.1.15,2013-02-21 21:06:00,
2013-02-21 16:11:00,36.5,19.1,30.21,North,3,3.0,4.0,49,0.00,,,0.00,0,Wunderground v.1.15,2013-02-21 21:11:00,
2013-02-21 16:16:00,36.3,18.5,30.22,NE,40,5.0,6.0,48,0.00,,,0.00,0,Wunderground v.1.15,2013-02-21 21:16:00,
2013-02-21 16:21:00,36.2,18.9,30.21,ENE,74,6.0,6.0,49,0.00,,,0.00,0,Wunderground v.1.15,2013-02-21 21:21:00,
2013-02-21 16:27:00,36.2,19.3,30.21,ENE,61,2.0,6.0,50,0.00,,,0.00,0,Wunderground v.1.15,2013-02-21 21:27:00,
2013-02-21 16:32:00,36.1,19.2,30.21,NNE,28,2.0,5.0,50,0.00,,,0.00,0,Wunderground v.1.15,2013-02-21 21:32:00,
2013-02-21 16:37:00,35.9,19.0,30.21,East,84,2.0,6.0,50,0.00,,,0.00,0,Wunderground v.1.15,2013-02-21 21:37:00,
2013-02-21 16:42:00,35.9,19.0,30.20,NNE,21,3.0,4.0,50,0.00,,,0.00,0,Wunderground v.1.15,2013-02-21 21:42:00,
2013-02-21 16:47:00,35.9,19.0,30.20,ENE,68,1.0,6.0,50,0.00,,,0.00,0,Wunderground v.1.15,2013-02-21 21:47:00,
2013-02-21 16:52:00,35.8,19.4,30.19,ENE,73,2.0,6.0,51,0.00,,,0.00,0,Wunderground v.1.15,2013-02-21 21:52:00,
2013-02-21 16:57:00,35.6,19.7,30.19,NE,47,2.0,6.0,52,0.00,,,0.00,0,Wunderground v.1.15,2013-02-21 21:57:00,
2013-02-21 17:03:00,35.4,19.0,30.19,NNE,19,4.0,6.0,51,0.00,,,0.00,0,Wunderground v.1.15,2013-02-21 22:03:00,
2013-02-21 17:08:00,35.1,18.8,30.20,ENE,74,1.0,7.0,51,0.00,,,0.00,0,Wunderground v.1.15,2013-02-21 22:08:00,
2013-02-21 17:13:00,35.1,19.7,30.20,ENE,68,3.0,4.0,53,0.00,,,0.00,0,Wunderground v.1.15,2013-02-21 22:13:00,
2013-02-21 17:18:00,34.8,18.9,30.21,North,353,2.0,5.0,52,0.00,,,0.00,0,Wunderground v.1.15,2013-02-21 22:18:00,
2013-02-21 17:24:00,34.5,19.1,30.21,ENE,57,2.0,6.0,53,0.00,,,0.00,0,Wunderground v.1.15,2013-02-21 22:24:00,
2013-02-21 17:29:00,34.3,19.4,30.22,ENE,67,2.0,2.0,54,0.00,,,0.00,0,Wunderground v.1.15,2013-02-21 22:29:00,
2013-02-21 17:33:00,34.2,18.8,30.21,ENE,64,2.0,5.0,53,0.00,,,0.00,0,Wunderground v.1.15,2013-02-21 22:33:00,
2013-02-21 17:38:00,34.1,19.2,30.21,ENE,69,3.0,3.0,54,0.00,,,0.00,0,Wunderground v.1.15,2013-02-21 22:38:00,
2013-02-21 17:43:00,33.9,19.4,30.20,ENE,71,1.0,6.0,55,0.00,,,0.00,0,Wunderground v.1.15,2013-02-21 22:43:00,
2013-02-21 17:49:00,33.8,19.3,30.20,NE,54,2.0,2.0,55,0.00,,,0.00,0,Wunderground v.1.15,2013-02-21 22:49:00,
2013-02-21 17:54:00,33.6,19.6,30.20,NE,45,2.0,5.0,56,0.00,,,0.00,0,Wunderground v.1.15,2013-02-21 22:54:00,
2013-02-21 17:59:00,33.5,19.0,30.20,North,3,2.0,6.0,55,0.00,,,0.00,0,Wunderground v.1.15,2013-02-21 22:59:00,
2013-02-21 18:05:00,33.3,18.9,30.20,NE,53,1.0,7.0,55,0.00,,,0.00,0,Wunderground v.1.15,2013-02-21 23:05:00,
2013-02-21 18:11:00,33.2,19.2,30.21,NE,54,1.0,3.0,56,0.00,,,0.00,0,Wunderground v.1.15,2013-02-21 23:11:00,
2013-02-21 18:16:00,33.0,19.0,30.21,NNE,25,3.0,4.0,56,0.00,,,0.00,0,Wunderground v.1.15,2013-02-21 23:16:00,
2013-02-21 18:21:00,32.9,18.9,30.22,East,91,3.0,5.0,56,0.00,,,0.00,0,Wunderground v.1.15,2013-02-21 23:21:00,
2013-02-21 18:26:00,32.7,19.1,30.21,NNE,26,2.0,5.0,57,0.00,,,0.00,0,Wunderground v.1.15,2013-02-21 23:26:00,
2013-02-21 18:31:00,32.6,19.4,30.21,ENE,67,4.0,4.0,58,0.00,,,0.00,0,Wunderground v.1.15,2013-02-21 23:31:00,
2013-02-21 18:36:00,32.5,19.3,30.21,NNE,14,3.0,5.0,58,0.00,,,0.00,0,Wunderground v.1.15,2013-02-21 23:36:00,
2013-02-21 18:41:00,32.3,19.2,30.21,NE,39,1.0,5.0,58,0.00,,,0.00,0,Wunderground v.1.15,2013-02-21 23:41:00,
2013-02-21 18:46:00,32.2,19.1,30.20,NE,55,0.0,5.0,58,0.00,,,0.00,0,Wunderground v.1.15,2013-02-21 23:46:00,
2013-02-21 18:51:00,32.1,19.0,30.21,North,1,3.0,5.0,58,0.00,,,0.00,0,Wunderground v.1.15,2013-02-21 23:51:00,
2013-02-21 18:56:00,32.1,19.4,30.21,ENE,70,3.0,6.0,59,0.00,,,0.00,0,Wunderground v.1.15,2013-02-21 23:56:00,
2013-02-21 19:01:00,32.0,18.9,30.20,ENE,71,2.0,7.0,58,0.00,,,0.00,0,Wunderground v.1.15,2013-02-22 00:01:00,
2013-02-21 19:06:00,32.0,19.3,30.19,NE,48,3.0,7.0,59,0.00,,,0.00,0,Wunderground v.1.15,2013-02-22 00:06:00,
2013-02-21 19:11:00,31.9,19.2,30.19,NE,51,4.0,7.0,59,0.00,,,0.00,0,Wunderground v.1.15,2013-02-22 00:11:00,
2013-02-21 19:16:00,31.8,19.1,30.18,NNE,18,5.0,10.0,59,0.00,,,0.00,0,Wunderground v.1.15,2013-02-22 00:16:00,
2013-02-21 19:21:00,31.7,18.6,30.18,ENE,72,2.0,9.0,58,0.00,,,0.00,0,Wunderground v.1.15,2013-02-22 00:21:00,
2013-02-21 19:26:00,31.7,18.6,30.18,East,90,8.0,10.0,58,0.00,,,0.00,0,Wunderground v.1.15,2013-02-22 00:26:00,
2013-02-21 19:32:00,31.6,18.5,30.18,ENE,68,3.0,10.0,58,0.00,,,0.00,0,Wunderground v.1.15,2013-02-22 00:32:00,
2013-02-21 19:37:00,31.6,18.5,30.17,North,8,3.0,10.0,58,0.00,,,0.00,0,Wunderground v.1.15,2013-02-22 00:37:00,
2013-02-21 19:42:00,31.6,18.9,30.18,ENE,70,4.0,9.0,59,0.00,,,0.00,0,Wunderground v.1.15,2013-02-22 00:42:00,
2013-02-21 19:48:00,31.6,18.5,30.18,East,79,2.0,9.0,58,0.00,,,0.00,0,Wunderground v.1.15,2013-02-22 00:48:00,
2013-02-21 19:53:00,31.5,18.4,30.18,ENE,70,3.0,7.0,58,0.00,,,0.00,0,Wunderground v.1.15,2013-02-22 00:53:00,
2013-02-21 19:58:00,31.5,18.4,30.17,ESE,113,3.0,10.0,58,0.00,,,0.00,0,Wunderground v.1.15,2013-02-22 00:58:00,
2013-02-21 20:03:00,31.6,18.5,30.17,East,79,6.0,9.0,58,0.00,,,0.00,0,Wunderground v.1.15,2013-02-22 01:03:00,
2013-02-21 20:08:00,31.6,18.5,30.17,ENE,74,3.0,9.0,58,0.00,,,0.00,0,Wunderground v.1.15,2013-02-22 01:08:00,
2013-02-21 20:13:00,31.7,18.2,30.17,ENE,69,5.0,12.0,57,0.00,,,0.00,0,Wunderground v.1.15,2013-02-22 01:13:00,
2013-02-21 20:18:00,31.7,18.6,30.15,ENE,68,5.0,12.0,58,0.00,,,0.00,0,Wunderground v.1.15,2013-02-22 01:18:00,
2013-02-21 20:23:00,31.8,18.3,30.16,ESE,108,2.0,9.0,57,0.00,,,0.00,0,Wunderground v.1.15,2013-02-22 01:23:00,
2013-02-21 20:28:00,31.9,18.4,30.16,ENE,74,4.0,9.0,57,0.00,,,0.00,0,Wunderground v.1.15,2013-02-22 01:28:00,
2013-02-21 20:33:00,31.9,18.4,30.17,ENE,77,2.0,8.0,57,0.00,,,0.00,0,Wunderground v.1.15,2013-02-22 01:33:00,
2013-02-21 20:38:00,32.0,18.5,30.17,SSE,155,3.0,8.0,57,0.00,,,0.00,0,Wunderground v.1.15,2013-02-22 01:38:00,
2013-02-21 20:43:00,32.1,18.6,30.17,East,87,4.0,5.0,57,0.00,,,0.00,0,Wunderground v.1.15,2013-02-22 01:43:00,
2013-02-21 20:48:00,32.1,18.6,30.17,East,100,4.0,6.0,57,0.00,,,0.00,0,Wunderground v.1.15,2013-02-22 01:48:00,
2013-02-21 20:53:00,32.2,18.2,30.17,East,90,2.0,5.0,56,0.00,,,0.00,0,Wunderground v.1.15,2013-02-22 01:53:00,
2013-02-21 20:58:00,32.2,19.5,30.16,ENE,72,5.0,6.0,59,0.00,,,0.00,0,Wunderground v.1.15,2013-02-22 01:58:00,
2013-02-21 21:03:00,32.2,19.1,30.16,ENE,77,2.0,6.0,58,0.00,,,0.00,0,Wunderground v.1.15,2013-02-22 02:03:00,
2013-02-21 21:08:00,32.2,19.1,30.16,NE,53,3.0,8.0,58,0.00,,,0.00,0,Wunderground v.1.15,2013-02-22 02:08:00,
2013-02-21 21:13:00,32.2,19.1,30.16,NE,49,4.0,8.0,58,0.00,,,0.00,0,Wunderground v.1.15,2013-02-22 02:13:00,
2013-02-21 21:18:00,32.2,19.1,30.16,ENE,68,2.0,8.0,58,0.00,,,0.00,0,Wunderground v.1.15,2013-02-22 02:18:00,
2013-02-21 21:23:00,32.1,18.6,30.16,East,100,4.0,8.0,57,0.00,,,0.00,0,Wunderground v.1.15,2013-02-22 02:23:00,
2013-02-21 21:28:00,32.2,18.7,30.17,ENE,63,3.0,8.0,57,0.00,,,0.00,0,Wunderground v.1.15,2013-02-22 02:28:00,
2013-02-21 21:33:00,32.2,18.7,30.18,ENE,74,0.0,3.0,57,0.00,,,0.00,0,Wunderground v.1.15,2013-02-22 02:33:00,
2013-02-21 21:38:00,32.3,18.3,30.18,ENE,66,2.0,4.0,56,0.00,,,0.00,0,Wunderground v.1.15,2013-02-22 02:38:00,
2013-02-21 21:43:00,32.3,18.3,30.18,East,89,0.0,4.0,56,0.00,,,0.00,0,Wunderground v.1.15,2013-02-22 02:43:00,
2013-02-21 21:48:00,32.3,18.3,30.18,East,89,1.0,4.0,56,0.00,,,0.00,0,Wunderground v.1.15,2013-02-22 02:48:00,
2013-02-21 21:53:00,32.3,18.8,30.19,NNW,344,2.0,5.0,57,0.00,,,0.00,0,Wunderground v.1.15,2013-02-22 02:53:00,
2013-02-21 21:58:00,32.4,18.8,30.20,NNW,340,1.0,5.0,57,0.00,,,0.00,0,Wunderground v.1.15,2013-02-22 02:58:00,
2013-02-21 22:03:00,32.4,18.8,30.19,NNW,340,0.0,1.0,57,0.00,,,0.00,0,Wunderground v.1.15,2013-02-22 03:03:00,
2013-02-21 22:08:00,32.4,18.4,30.20,NNW,340,0.0,2.0,56,0.00,,,0.00,0,Wunderground v.1.15,2013-02-22 03:08:00,
2013-02-21 22:13:00,32.4,18.4,30.19,North,351,2.0,3.0,56,0.00,,,0.00,0,Wunderground v.1.15,2013-02-22 03:13:00,
2013-02-21 22:18:00,32.4,18.4,30.18,North,351,0.0,3.0,56,0.00,,,0.00,0,Wunderground v.1.15,2013-02-22 03:18:00,
2013-02-21 22:23:00,32.4,18.0,30.18,NE,42,1.0,3.0,55,0.00,,,0.00,0,Wunderground v.1.15,2013-02-22 03:23:00,
2013-02-21 22:28:00,32.4,18.4,30.17,NE,42,0.0,3.0,56,0.00,,,0.00,0,Wunderground v.1.15,2013-02-22 03:28:00,
2013-02-21 22:33:00,32.4,18.4,30.17,NNE,27,0.0,4.0,56,0.00,,,0.00,0,Wunderground v.1.15,2013-02-22 03:33:00,
2013-02-21 22:38:00,32.4,19.3,30.16,NE,51,1.0,4.0,58,0.00,,,0.00,0,Wunderground v.1.15,2013-02-22 03:38:00,
2013-02-21 22:43:00,32.4,18.8,30.16,ENE,78,1.0,4.0,57,0.00,,,0.00,0,Wunderground v.1.15,2013-02-22 03:43:00,
2013-02-21 22:48:00,32.4,18.8,30.16,East,87,3.0,5.0,57,0.00,,,0.00,0,Wunderground v.1.15,2013-02-22 03:48:00,
2013-02-21 22:53:00,32.4,18.4,30.16,East,84,4.0,6.0,56,0.00,,,0.00,0,Wunderground v.1.15,2013-02-22 03:53:00,
2013-02-21 22:58:00,32.4,18.4,30.17,NE,52,2.0,6.0,56,0.00,,,0.00,0,Wunderground v.1.15,2013-02-22 03:58:00,
2013-02-21 23:03:00,32.5,18.5,30.17,SE,129,0.0,3.0,56,0.00,,,0.00,0,Wunderground v.1.15,2013-02-22 04:03:00,
2013-02-21 23:08:00,32.5,18.5,30.17,ENE,70,1.0,3.0,56,0.00,,,0.00,0,Wunderground v.1.15,2013-02-22 04:08:00,
2013-02-21 23:14:00,32.5,18.9,30.17,ENE,63,1.0,3.0,57,0.00,,,0.00,0,Wunderground v.1.15,2013-02-22 04:14:00,
2013-02-21 23:19:00,32.5,18.9,30.18,South,190,0.0,0.0,57,0.00,,,0.00,0,Wunderground v.1.15,2013-02-22 04:19:00,
2013-02-21 23:24:00,32.5,18.5,30.16,ENE,62,2.0,4.0,56,0.00,,,0.00,0,Wunderground v.1.15,2013-02-22 04:24:00,
2013-02-21 23:29:00,32.5,18.5,30.16,ESE,119,1.0,3.0,56,0.00,,,0.00,0,Wunderground v.1.15,2013-02-22 04:29:00,
2013-02-21 23:34:00,32.5,18.1,30.16,ENE,75,2.0,4.0,55,0.00,,,0.00,0,Wunderground v.1.15,2013-02-22 04:34:00,
2013-02-21 23:39:00,32.5,18.1,30.15,East,84,2.0,5.0,55,0.00,,,0.00,0,Wunderground v.1.15,2013-02-22 04:39:00,
2013-02-21 23:44:00,32.5,18.5,30.15,ENE,71,2.0,5.0,56,0.00,,,0.00,0,Wunderground v.1.15,2013-02-22 04:44:00,
2013-02-21 23:49:00,32.5,18.1,30.16,ENE,68,4.0,4.0,55,0.00,,,0.00,0,Wunderground v.1.15,2013-02-22 04:49:00,
2013-02-21 23:54:00,32.5,18.1,30.16,ENE,75,0.0,5.0,55,0.00,,,0.00,0,Wunderground v.1.15,2013-02-22 04:54:00,